Regional Weather Roundup
Issued by NWS Little Rock, AR

Home | Current Version | Previous Version | Graphics & Text | Print | Product List | Glossary On
Versions: 1 2 3 4 5 6 7 8 9 10 11 12 13 14 15 16 17 18 19 20 21 22 23 24 25 26 27 28 29 30 31 32 33 34 35 36 37 38 39 40 41 42 43 44 45 46 47 48 49 50
532
ASUS44 KLZK 230505
RWRLZK

WEATHER ROUNDUP FOR ARKANSAS
NATIONAL WEATHER SERVICE LITTLE ROCK AR
1200 AM CDT THU MAR 23 2017

NOTE: "FAIR" INDICATES FEW OR NO CLOUDS BELOW 12,000 FEET WITH NO
SIGNIFICANT WEATHER AND/OR OBSTRUCTIONS TO VISIBILITY.

ARZ001-003-010-029-230600-
NORTHWEST ARKANSAS

CITY           SKY/WX    TMP DP  RH WIND       PRES   REMARKS
FAYETTEVILLE   PTCLDY    53  43  68 SE8       30.18F
FORT SMITH     CLEAR     54  42  64 E12       30.19S
HARRISON       MOCLDY    49  35  58 SE12      30.24S
BENTONVILLE    CLOUDY    55  41  58 SE12      30.18F
ROGERS         CLOUDY    54  42  64 SE14      30.18F
SILOAM SPGS    CLOUDY    55  43  62 SE10      30.15F
HIGHFILL       CLOUDY    56  43  61 SE15      30.17F
$$

ARZ004-005-016-230600-
NORTH CENTRAL ARKANSAS

CITY           SKY/WX    TMP DP  RH WIND       PRES   REMARKS
BATESVILLE     CLOUDY    52  30  43 E8        30.30S
FLIPPIN        CLOUDY    52  28  40 SE6       30.25F
MTN HOME       MOCLDY    50  30  46 SE13G18   30.25F
$$

ARZ040-041-230600-
WEST CENTRAL ARKANSAS

CITY           SKY/WX    TMP DP  RH WIND       PRES   REMARKS
MENA           CLEAR     57  52  82 E8        30.21R
MOUNT IDA      CLEAR     55  44  66 E3        30.20R
$$

ARZ009-017-025-026-028-230600-
NORTHEAST ARKANSAS

CITY           SKY/WX    TMP DP  RH WIND       PRES   REMARKS
CORNING        CLOUDY    48  32  53 E14       30.32F
JONESBORO      PTCLDY    48  35  60 NE10      30.30S
NEWPORT        CLOUDY    50  41  71 MISG        N/A
WALNUT RIDGE   MOCLDY    48  34  57 NE8       30.32S
BLYTHEVILLE    PTCLDY    46  37  71 E6        30.31F
$$

ARZ022-023-033-042-044-230600-
CENTRAL ARKANSAS

CITY           SKY/WX    TMP DP  RH WIND       PRES   REMARKS
LITTLE ROCK    CLEAR     51  41  68 NE12      30.25S
CONWAY           N/A     52  37  58 NE9       30.24S
HOT SPRINGS    CLEAR     55  44  66 E8        30.23R
RUSSELLVILLE   CLEAR     52  37  56 E7        30.25R
CLINTON        CLOUDY    45  43  93 CALM      30.28S
$$

ARZ036-230600-
EAST ARKANSAS

CITY           SKY/WX    TMP DP  RH WIND       PRES   REMARKS
WEST MEMPHIS   PTCLDY    51  34  52 E7        30.27F
$$

ARZ050-053-066-070-073-230600-
SOUTHWEST ARKANSAS

CITY           SKY/WX    TMP DP  RH WIND       PRES   REMARKS
ARKADELPHIA    FAIR      55  46  71 VRB6      30.23R
CAMDEN         PTCLDY    57  45  62 NE5       30.20F
TEXARKANA      CLEAR     59  51  75 E6        30.17S
EL DORADO      CLEAR     58  50  75 E7        30.19S
DE QUEEN       CLEAR     58  50  75 E6        30.17R
$$

ARZ056-057-069-230600-
SOUTHEAST ARKANSAS

CITY           SKY/WX    TMP DP  RH WIND       PRES   REMARKS
PINE BLUFF     CLEAR     54  41  61 NE7       30.23F
STUTTGART      CLEAR     54  34  47 NE10      30.26F
MONTICELLO     CLEAR     57  45  64 NE9       30.21F

$$






USA.gov is the U.S. government's official web portal to all federal, state and local government web resources and services.